User: anonymous   Login
Location: Caltech
(34.1382°N, 118.1253°W)
Time: 08:24:38
(UTC-07:00)
Language:

Iridium 14 - Orbit

View from above orbital plane
View from above orbital plane
View from above satellite
View from above satellite

Ground track
Ground track

The orbit data is extracted from the following two-line orbital elements,

1 25777U 99032A   16150.57171692  .00000115  00000-0  33863-4 0  9996
2 25777  86.3977  24.3205 0002208  90.9002 314.4981 14.34213288899695
Epoch (UTC): 29 May 2016 13:43:16
Eccentricity: 0.0002208
inclination: 86.3977°
perigee height: 776 km
apogee height: 779 km
right ascension of ascending node: 24.3205°
argument of perigee: 90.9002°
revolutions per day: 14.34213288
mean anomaly at epoch: 314.4981°
orbit number at epoch: 89969

The dashed part of the orbit path shows where the satellite is in the earth's shadow,  

DLR